• Processing (Info)

  • MPEC 2005-Q50 : 2005 QJ11

    The following Minor Planet Electronic Circular may be linked-to from your own Web pages, but must not otherwise be redistributed electronically.

    A form allowing access to any MPEC is at the bottom of this page.


    Read MPEC 2005-Q49 Read MPEC 2005-Q51


    M.P.E.C. 2005-Q50                                Issued 2005 Aug. 29, 21:58 UT
    
         The Minor Planet Electronic Circulars contain information on unusual
             minor planets and routine data on comets.  They are published
       on behalf of Commission 20 of the International Astronomical Union by the
              Minor Planet Center, Smithsonian Astrophysical Observatory,
                              Cambridge, MA 02138, U.S.A.
    
                      Supported in part by the Brinson Foundation
                 Prepared using the Tamkin Foundation Computer Network
    
                                  MPC@CFA.HARVARD.EDU
              URL http://cfa-www.harvard.edu/iau/mpc.html  ISSN 1523-6714
    
                                       2005 QJ11
    
    Observations:
         K05Q11J* C2005 08 26.35953 23 09 34.65 -01 01 04.4          19.1 R EQ050699
         K05Q11J  C2005 08 26.37792 23 09 33.69 -01 01 41.3                 EQ050699
         K05Q11J  C2005 08 26.39631 23 09 32.69 -01 02 14.0                 EQ050699
         K05Q11J  C2005 08 26.41469 23 09 31.60 -01 02 50.9                 EQ050699
         K05Q11J  C2005 08 29.33549 23 06 53.19 -02 38 10.6          18.7 R EQ050699
         K05Q11J  C2005 08 29.35376 23 06 52.11 -02 38 47.6                 EQ050699
         K05Q11J  C2005 08 29.37200 23 06 51.08 -02 39 22.8                 EQ050699
         K05Q11J  C2005 08 29.39023 23 06 49.97 -02 40 00.1                 EQ050699
         K05Q11J  C2005 08 29.86632 23 06 23.63 -02 55 51.7          19.1 V EQ050151
         K05Q11J  C2005 08 29.86836 23 06 23.53 -02 55 56.4          18.9 R EQ050143
         K05Q11J  C2005 08 29.86967 23 06 23.45 -02 55 59.2          19.1 V EQ050151
         K05Q11J  C2005 08 29.87114 23 06 23.37 -02 56 02.3          19.1 V EQ050151
         K05Q11J  C2005 08 29.87182 23 06 23.37 -02 56 02.9          19.0 V EQ050151
         K05Q11J  C2005 08 29.87273 23 06 23.31 -02 56 05.1          19.1 R EQ050143
         K05Q11J  C2005 08 29.88405 23 06 22.64 -02 56 27.6          19.0 R EQ050143
         K05Q11J  C2005 08 29.88988 23 06 22.31 -02 56 39.1          19.1 R EQ050143
    
    Observer details:
    143 Gnosca.  Observer S. Sposetti.  0.40-m f/4 reflector + CCD.
    151 Eschenberg Observatory, Winterthur.  Observer M. Griesser.  0.40-m f/5.9
        Hypergraph + CCD.
    699 Lowell Observatory-LONEOS.  Observers M. E. Van Ness, B. A. Skiff.  0.59-m
        LONEOS Schmidt + CCD.
    
    Orbital elements:
    2005 QJ11
    Epoch 2005 Aug. 18.0 TT = JDT 2453600.5                 MPC
    M 294.08384              (2000.0)            P               Q
    n   0.28200224     Peri.  262.96092     +0.30897109     -0.92615716
    a   2.3030375      Node   163.14464     +0.84233088     +0.37205882
    e   0.1989936      Incl.   48.23189     -0.44160565     +0.06168590
    P   3.50           H   16.6           G   0.15
    From 16 observations 2005 Aug. 26-29.
    
    Ephemeris:
    2005 QJ11                a,e,i = 2.30, 0.20, 48                  q = 1.8447
    Date    TT    R. A. (2000) Decl.     Delta      r     Elong.  Phase     V
    2005 08 28    23 08.11   -01 54.1    1.181    2.177   167.0     6.0    19.1
    2005 09 07    22 58.35   -07 35.8    1.147    2.154   178.2     0.8    18.7
    2005 09 17    22 48.14   -13 24.1    1.149    2.132   163.3     7.8    19.1
    2005 09 27    22 38.97   -18 45.3    1.186    2.109   149.0    14.2    19.4
    2005 10 07    22 32.16   -23 15.8    1.252    2.087   135.7    19.6    19.7
    2005 10 17    22 28.63   -26 46.8    1.339    2.065   123.7    23.7    19.9
    2005 10 27    22 28.73   -29 21.2    1.440    2.044   112.9    26.6    20.1
    2005 11 06    22 32.43   -31 06.7    1.549    2.023   103.4    28.5    20.3
    2005 11 16    22 39.46   -32 12.1    1.660    2.003    94.9    29.5    20.5
    2005 11 26    22 49.38   -32 45.0    1.770    1.984    87.2    29.8    20.6
    2005 12 06    23 01.79   -32 51.4    1.874    1.966    80.3    29.6    20.7
    2005 12 16    23 16.30   -32 35.8    1.972    1.948    74.2    29.1    20.8
    2005 12 26    23 32.56   -32 01.9    2.060    1.932    68.6    28.3    20.9
    2006 01 05    23 50.32   -31 12.1    2.140    1.917    63.6    27.4    20.9
    
    Timothy B. Spahr             (C) Copyright 2005 MPC           M.P.E.C. 2005-Q50
    

    Read MPEC 2005-Q49 Read MPEC 2005-Q51


    MPEC number:

    Enter an MPEC number in one of the following forms:

    • 1997-B01 (the full form)
    • J97B01 (the packed version of the full form)
    • B01 (the abbreviated form)